| time (UTC) | temp F | wind direction | speed MPH | gust MPH | rain 1hr in | rain 24hr in | rain mn in | humidity % | barometer mb |
| 20260507103012 | 26 | 225 | 3.0 | 3.0 | 0.00 | 0.00 | 0.00 | 67 | 88.8 |
| 20260507102011 | 27 | 180 | 3.0 | 3.0 | 0.00 | 0.00 | 0.00 | 66 | 88.8 |
| 20260507101012 | 27 | 180 | 3.0 | 3.0 | 0.00 | 0.00 | 0.00 | 65 | 88.8 |
| 20260507100012 | 27 | 180 | 3.0 | 3.0 | 0.00 | 0.00 | 0.00 | 66 | 88.8 |
| 20260507095012 | 26 | 202 | 4.0 | 4.0 | 0.00 | 0.00 | 0.00 | 62 | 88.8 |
| 20260507094012 | 24 | 225 | 4.0 | 4.0 | 0.00 | 0.00 | 0.00 | 64 | 88.8 |
| 20260507093012 | 24 | 202 | 3.0 | 3.0 | 0.00 | 0.00 | 0.00 | 64 | 88.8 |
| 20260507092012 | 25 | 225 | 3.0 | 3.0 | 0.00 | 0.00 | 0.00 | 64 | 88.8 |
| 20260507091012 | 27 | 202 | 3.0 | 3.0 | 0.00 | 0.00 | 0.00 | 63 | 88.8 |
| 20260507085011 | 28 | 202 | 4.0 | 4.0 | 0.00 | 0.00 | 0.00 | 61 | 88.8 |
| 20260507084012 | 28 | 180 | 4.0 | 4.0 | 0.00 | 0.00 | 0.00 | 61 | 88.8 |
| 20260507083012 | 28 | 202 | 4.0 | 4.0 | 0.00 | 0.00 | 0.00 | 61 | 88.8 |
| 20260507082012 | 28 | 225 | 3.0 | 3.0 | 0.00 | 0.00 | 0.00 | 60 | 88.8 |
| 20260507081011 | 29 | 180 | 4.0 | 4.0 | 0.00 | 0.00 | 0.00 | 60 | 88.8 |
| 20260507080012 | 29 | 202 | 3.0 | 3.0 | 0.00 | 0.00 | 0.00 | 60 | 88.8 |
| 20260507075011 | 29 | 202 | 4.0 | 4.0 | 0.00 | 0.00 | 0.00 | 58 | 88.8 |
| 20260507074011 | 29 | 180 | 4.0 | 4.0 | 0.00 | 0.00 | 0.00 | 57 | 88.8 |
| 20260507073012 | 28 | 180 | 4.0 | 4.0 | 0.00 | 0.00 | 0.00 | 55 | 88.8 |
| 20260507072011 | 29 | 158 | 5.0 | 5.0 | 0.00 | 0.00 | 0.00 | 52 | 88.8 |
| 20260507071012 | 29 | 158 | 5.0 | 5.0 | 0.00 | 0.00 | 0.00 | 51 | 88.8 |
| 20260507070013 | 30 | 180 | 5.0 | 5.0 | 0.00 | 0.00 | 0.00 | 49 | 88.8 |
| 20260507065011 | 30 | 180 | 4.0 | 4.0 | 0.00 | 0.00 | 0.00 | 49 | 88.8 |
| 20260507064011 | 30 | 158 | 5.0 | 5.0 | 0.00 | 0.00 | 0.00 | 48 | 88.8 |
| 20260507063012 | 30 | 180 | 4.0 | 4.0 | 0.00 | 0.00 | 0.00 | 48 | 88.8 |
| 20260507062017 | 29 | 158 | 5.0 | 5.0 | 0.00 | 0.00 | 0.00 | 48 | 88.8 |
| 20260507061011 | 29 | 180 | 5.0 | 5.0 | 0.00 | 0.00 | 0.00 | 45 | 88.8 |
| 20260507060012 | 28 | 180 | 4.0 | 4.0 | 0.00 | 0.00 | 0.00 | 43 | 88.8 |
| 20260507055012 | 28 | 180 | 3.0 | 3.0 | 0.00 | 0.00 | 0.00 | 43 | 88.8 |
| 20260507054011 | 27 | 180 | 4.0 | 4.0 | 0.00 | 0.00 | 0.00 | 43 | 88.8 |
| 20260507053012 | 27 | 180 | 3.0 | 3.0 | 0.00 | 0.00 | 0.00 | 43 | 88.8 |
| 20260507052012 | 27 | 158 | 3.0 | 3.0 | 0.00 | 0.00 | 0.00 | 43 | 88.8 |
| 20260507051011 | 28 | 135 | 2.0 | 2.0 | 0.00 | 0.00 | 0.00 | 43 | 88.8 |
| 20260507050012 | 28 | 180 | 0.0 | 0.0 | 0.00 | 0.00 | 0.00 | 43 | 88.8 |
| 20260507045012 | 28 | 180 | 4.0 | 4.0 | 0.00 | 0.00 | 0.00 | 42 | 88.8 |
| 20260507044011 | 28 | 180 | 3.0 | 3.0 | 0.00 | 0.00 | 0.00 | 44 | 88.8 |
| 20260507043012 | 29 | 158 | 2.0 | 2.0 | 0.00 | 0.00 | 0.00 | 43 | 88.8 |
| 20260507042012 | 30 | 180 | 2.0 | 2.0 | 0.00 | 0.00 | 0.00 | 43 | 88.8 |
| 20260507041011 | 31 | 135 | 3.0 | 3.0 | 0.00 | 0.00 | 0.00 | 43 | 88.8 |
| 20260507040013 | 31 | 158 | 2.0 | 2.0 | 0.00 | 0.00 | 0.00 | 43 | 88.8 |
| 20260507035017 | 31 | 180 | 2.0 | 2.0 | 0.00 | 0.00 | 0.00 | 43 | 88.8 |
| 20260507034011 | 32 | 180 | 2.0 | 2.0 | 0.00 | 0.00 | 0.00 | 43 | 88.8 |
| 20260507033012 | 32 | 180 | 0.0 | 0.0 | 0.00 | 0.00 | 0.00 | 43 | 88.8 |
| 20260507032011 | 33 | 180 | 0.0 | 0.0 | 0.00 | 0.00 | 0.00 | 42 | 88.8 |
| 20260507031011 | 33 | 158 | 0.0 | 0.0 | 0.00 | 0.00 | 0.00 | 42 | 88.8 |
| 20260507030012 | 33 | 112 | 2.0 | 2.0 | 0.00 | 0.00 | 0.00 | 42 | 88.8 |
| 20260507025011 | 34 | 202 | 0.0 | 0.0 | 0.00 | 0.00 | 0.00 | 41 | 88.8 |
| 20260507024012 | 36 | 158 | 0.0 | 0.0 | 0.00 | 0.00 | 0.00 | 41 | 88.8 |
| 20260507023011 | 37 | 135 | 0.0 | 0.0 | 0.00 | 0.00 | 0.00 | 39 | 88.8 |
| 20260507022012 | 41 | 112 | 2.0 | 2.0 | 0.00 | 0.00 | 0.00 | 38 | 88.8 |
| 20260507021012 | 44 | 112 | 3.0 | 3.0 | 0.00 | 0.00 | 0.00 | 36 | 88.8 |
| 20260507020012 | 45 | 112 | 4.0 | 4.0 | 0.00 | 0.00 | 0.00 | 35 | 88.8 |
| 20260507015011 | 47 | 112 | 5.0 | 5.0 | 0.00 | 0.00 | 0.00 | 34 | 88.8 |
| 20260507014012 | 48 | 112 | 7.0 | 7.0 | 0.00 | 0.00 | 0.00 | 33 | 88.8 |
| 20260507012011 | 51 | 112 | 7.0 | 7.0 | 0.00 | 0.00 | 0.00 | 31 | 88.8 |
| 20260507011011 | 52 | 112 | 8.0 | 8.0 | 0.00 | 0.00 | 0.00 | 31 | 88.8 |
| 20260507010012 | 54 | 112 | 8.0 | 8.0 | 0.00 | 0.00 | 0.00 | 29 | 88.8 |
| 20260507005011 | 54 | 112 | 6.0 | 6.0 | 0.00 | 0.00 | 0.00 | 28 | 88.8 |
| 20260507004012 | 54 | 112 | 7.0 | 7.0 | 0.00 | 0.00 | 0.00 | 28 | 88.8 |
| 20260507003012 | 55 | 68 | 7.0 | 7.0 | 0.00 | 0.00 | 0.00 | 26 | 88.8 |
| 20260507002012 | 54 | 158 | 3.0 | 3.0 | 0.00 | 0.00 | 0.00 | 26 | 88.8 |
| 20260507001011 | 53 | 180 | 3.0 | 3.0 | 0.00 | 0.00 | 0.00 | 27 | 88.8 |
| 20260507000012 | 52 | 112 | 6.0 | 6.0 | 0.00 | 0.00 | 0.00 | 26 | 88.8 |
| 20260506235013 | 52 | 158 | 7.0 | 7.0 | 0.00 | 0.00 | 0.00 | 26 | 88.8 |
| 20260506234011 | 51 | 158 | 4.0 | 4.0 | 0.00 | 0.00 | 0.00 | 26 | 88.8 |
| 20260506233012 | 51 | 45 | 7.0 | 7.0 | 0.00 | 0.00 | 0.00 | 27 | 88.8 |
| 20260506232011 | 52 | 158 | 2.0 | 2.0 | 0.00 | 0.00 | 0.00 | 25 | 88.8 |
| 20260506231012 | 52 | 315 | 5.0 | 5.0 | 0.00 | 0.00 | 0.00 | 26 | 88.8 |
| 20260506230012 | 52 | 22 | 8.0 | 8.0 | 0.00 | 0.00 | 0.00 | 24 | 88.8 |
| 20260506225012 | 52 | 225 | 3.0 | 3.0 | 0.00 | 0.00 | 0.00 | 26 | 88.8 |
| 20260506224011 | 52 | 180 | 8.0 | 8.0 | 0.00 | 0.00 | 0.00 | 26 | 88.8 |
| 20260506223012 | 51 | 112 | 8.0 | 8.0 | 0.00 | 0.00 | 0.00 | 27 | 88.8 |
| 20260506222012 | 51 | 68 | 8.0 | 8.0 | 0.00 | 0.00 | 0.00 | 26 | 88.8 |
| 20260506221011 | 51 | 45 | 2.0 | 2.0 | 0.00 | 0.00 | 0.00 | 26 | 88.8 |
| 20260506220012 | 51 | 22 | 5.0 | 5.0 | 0.00 | 0.00 | 0.00 | 27 | 88.8 |
| 20260506215011 | 51 | 90 | 2.0 | 2.0 | 0.00 | 0.00 | 0.00 | 27 | 88.8 |
| 20260506214012 | 51 | 45 | 6.0 | 6.0 | 0.00 | 0.00 | 0.00 | 27 | 88.8 |
| 20260506213012 | 51 | 292 | 5.0 | 5.0 | 0.00 | 0.00 | 0.00 | 25 | 88.8 |
| 20260506212012 | 51 | 270 | 1.0 | 1.0 | 0.00 | 0.00 | 0.00 | 25 | 88.8 |
| 20260506211012 | 51 | 270 | 3.0 | 3.0 | 0.00 | 0.00 | 0.00 | 27 | 88.8 |
| 20260506210012 | 51 | 292 | 5.0 | 5.0 | 0.00 | 0.00 | 0.00 | 28 | 88.8 |
| 20260506205012 | 51 | 315 | 8.0 | 8.0 | 0.00 | 0.00 | 0.00 | 27 | 88.8 |
| 20260506204011 | 51 | 0 | 1.0 | 1.0 | 0.00 | 0.00 | 0.00 | 26 | 88.8 |
| 20260506203012 | 51 | 158 | 8.0 | 8.0 | 0.00 | 0.00 | 0.00 | 27 | 88.8 |
| 20260506202012 | 50 | 202 | 5.0 | 5.0 | 0.00 | 0.00 | 0.00 | 27 | 88.8 |
| 20260506201012 | 50 | 248 | 3.0 | 3.0 | 0.00 | 0.00 | 0.00 | 26 | 88.8 |
| 20260506200011 | 49 | 112 | 0.0 | 0.0 | 0.00 | 0.00 | 0.00 | 28 | 88.8 |
| 20260506195012 | 49 | 225 | 4.0 | 4.0 | 0.00 | 0.00 | 0.00 | 28 | 88.8 |
| 20260506194011 | 49 | 112 | 7.0 | 7.0 | 0.00 | 0.00 | 0.00 | 28 | 88.8 |
| 20260506192011 | 49 | 270 | 12.0 | 12.0 | 0.00 | 0.00 | 0.00 | 30 | 88.8 |
| 20260506191012 | 48 | 202 | 1.0 | 1.0 | 0.00 | 0.00 | 0.00 | 30 | 88.8 |
| 20260506190011 | 48 | 270 | 4.0 | 4.0 | 0.00 | 0.00 | 0.00 | 32 | 88.8 |
| 20260506185012 | 47 | 68 | 5.0 | 5.0 | 0.00 | 0.00 | 0.00 | 30 | 88.8 |
| 20260506184011 | 47 | 90 | 4.0 | 4.0 | 0.00 | 0.00 | 0.00 | 30 | 88.8 |
| 20260506183011 | 47 | 338 | 3.0 | 3.0 | 0.00 | 0.00 | 0.00 | 30 | 88.8 |
| 20260506182012 | 47 | 22 | 10.0 | 10.0 | 0.00 | 0.00 | 0.00 | 32 | 88.8 |
| 20260506181011 | 47 | 45 | 5.0 | 5.0 | 0.00 | 0.00 | 0.00 | 32 | 88.8 |
| 20260506180012 | 47 | 0 | 10.0 | 10.0 | 0.00 | 0.00 | 0.00 | 32 | 88.8 |
| 20260506175012 | 46 | 270 | 9.0 | 9.0 | 0.00 | 0.00 | 0.00 | 31 | 88.8 |
| 20260506174012 | 46 | 0 | 9.0 | 9.0 | 0.00 | 0.00 | 0.00 | 32 | 88.8 |
| 20260506173012 | 46 | 90 | 2.0 | 2.0 | 0.00 | 0.00 | 0.00 | 31 | 88.8 |
| 20260506172012 | 46 | 90 | 3.0 | 3.0 | 0.00 | 0.00 | 0.00 | 33 | 88.8 |
| 20260506171011 | 46 | 22 | 8.0 | 8.0 | 0.00 | 0.00 | 0.00 | 33 | 88.8 |
| 20260506170012 | 46 | 22 | 6.0 | 6.0 | 0.00 | 0.00 | 0.00 | 33 | 88.8 |
| 20260506165012 | 45 | 0 | 11.0 | 11.0 | 0.00 | 0.00 | 0.00 | 33 | 88.8 |
| 20260506164012 | 45 | 45 | 0.0 | 0.0 | 0.00 | 0.00 | 0.00 | 34 | 88.8 |
| 20260506163011 | 45 | 315 | 7.0 | 7.0 | 0.00 | 0.00 | 0.00 | 34 | 88.8 |
| 20260506162012 | 45 | 22 | 5.0 | 5.0 | 0.00 | 0.00 | 0.00 | 34 | 88.8 |
| 20260506161012 | 45 | 292 | 5.0 | 5.0 | 0.00 | 0.00 | 0.00 | 34 | 88.8 |
| 20260506160011 | 46 | 338 | 6.0 | 6.0 | 0.00 | 0.00 | 0.00 | 35 | 88.8 |
| 20260506155012 | 46 | 292 | 6.0 | 6.0 | 0.00 | 0.00 | 0.00 | 35 | 88.8 |
| 20260506154012 | 47 | 22 | 9.0 | 9.0 | 0.00 | 0.00 | 0.00 | 35 | 88.8 |
| 20260506153012 | 47 | 270 | 7.0 | 7.0 | 0.00 | 0.00 | 0.00 | 36 | 88.8 |
| 20260506152012 | 49 | 292 | 9.0 | 9.0 | 0.00 | 0.00 | 0.00 | 36 | 88.8 |
| 20260506151012 | 50 | 22 | 8.0 | 8.0 | 0.00 | 0.00 | 0.00 | 36 | 88.8 |
| 20260506150011 | 50 | 270 | 7.0 | 7.0 | 0.00 | 0.00 | 0.00 | 37 | 88.8 |
| 20260506145012 | 49 | 270 | 7.0 | 7.0 | 0.00 | 0.00 | 0.00 | 37 | 88.8 |
| 20260506144011 | 49 | 270 | 9.0 | 9.0 | 0.00 | 0.00 | 0.00 | 37 | 88.8 |
| 20260506143011 | 49 | 270 | 8.0 | 8.0 | 0.00 | 0.00 | 0.00 | 38 | 88.8 |
| 20260506142012 | 49 | 270 | 5.0 | 5.0 | 0.00 | 0.00 | 0.00 | 40 | 88.8 |
| 20260506141012 | 47 | 270 | 6.0 | 6.0 | 0.00 | 0.00 | 0.00 | 42 | 88.8 |
| 20260506140017 | 46 | 225 | 3.0 | 3.0 | 0.00 | 0.00 | 0.00 | 45 | 88.8 |
| 20260506135012 | 44 | 248 | 2.0 | 2.0 | 0.00 | 0.00 | 0.00 | 45 | 88.8 |
| 20260506134011 | 43 | 270 | 7.0 | 7.0 | 0.00 | 0.00 | 0.00 | 46 | 88.8 |
| 20260506133012 | 40 | 270 | 3.0 | 3.0 | 0.00 | 0.00 | 0.00 | 47 | 88.8 |
| 20260506132011 | 36 | 248 | 3.0 | 3.0 | 0.00 | 0.00 | 0.00 | 47 | 88.8 |
| 20260506125011 | 21 | 90 | 0.0 | 0.0 | 0.00 | 0.00 | 0.00 | 61 | 88.8 |
| 20260506124012 | 19 | 135 | 0.0 | 0.0 | 0.00 | 0.00 | 0.00 | 63 | 88.8 |
| 20260506123011 | 18 | 112 | 0.0 | 0.0 | 0.00 | 0.00 | 0.00 | 62 | 88.8 |
| 20260506122011 | 16 | 225 | 0.0 | 0.0 | 0.00 | 0.00 | 0.00 | 61 | 88.8 |
| 20260506121012 | 15 | 248 | 0.0 | 0.0 | 0.00 | 0.00 | 0.00 | 63 | 88.8 |
| 20260506120011 | 14 | 270 | 0.0 | 0.0 | 0.00 | 0.00 | 0.00 | 66 | 88.8 |
| 20260506115011 | 14 | 248 | 2.0 | 2.0 | 0.00 | 0.00 | 0.00 | 68 | 88.8 |
| 20260506114012 | 13 | 248 | 1.0 | 1.0 | 0.00 | 0.00 | 0.00 | 72 | 88.8 |
| 20260506113011 | 14 | 112 | 0.0 | 0.0 | 0.00 | 0.00 | 0.00 | 71 | 88.8 |
| 20260506112011 | 14 | 202 | 0.0 | 0.0 | 0.00 | 0.00 | 0.00 | 69 | 88.8 |
| 20260506111012 | 14 | 112 | 0.0 | 0.0 | 0.00 | 0.00 | 0.00 | 69 | 88.8 |
| 20260506110012 | 14 | 135 | 0.0 | 0.0 | 0.00 | 0.00 | 0.00 | 66 | 88.8 |
| 20260506105012 | 14 | 225 | 0.0 | 0.0 | 0.00 | 0.00 | 0.00 | 66 | 88.8 |
| 20260506104012 | 14 | 338 | 0.0 | 0.0 | 0.00 | 0.00 | 0.00 | 68 | 88.8 |